When you browse on this site, cookies collect data to enhance your experience and personalize the content and advertising you see.
Visit our Privacy Policy to learn more. By continuing to use the site, you agree to this use of cookies and data.
  • In Portugal
  • List of Countries
  • For 7 days
  • Water Temperature
  • Weather Map
  • Weather Widgets
  • user-avatar
    Login

    Hourly Weather Kipungo

    Today, 17 February, Monday

    Time Temperature Precipitation Wind Pressure Humidity
    00:00 +20°C° 0.3 mm 1 mps 653 mmHg 93%
    01:00 +18°C° 0 mm 0 mps 653 mmHg 93%
    02:00 +18°C° 0.1 mm 0 mps 653 mmHg 93%
    03:00 +20°C° 0.1 mm 1 mps 652 mmHg 93%
    04:00 +20°C° 0.1 mm 1 mps 652 mmHg 94%
    05:00 +20°C° 0.4 mm 1 mps 652 mmHg 94%
    06:00 +18°C° 0.4 mm 0 mps 653 mmHg 95%
    07:00 +18°C° 0 mm 0 mps 653 mmHg 95%
    08:00 +18°C° 1.1 mm 0 mps 653 mmHg 96%
    09:00 +18°C° 1.1 mm 0 mps 654 mmHg 96%
    10:00 +18°C° 1.1 mm 0 mps 654 mmHg 97%
    11:00 +18°C° 0.5 mm 0 mps 653 mmHg 96%
    12:00 +21°C° 0.5 mm 1 mps 653 mmHg 95%
    13:00 +21°C° 0.5 mm 1 mps 653 mmHg 94%
    14:00 +21°C° 0.1 mm 1 mps 652 mmHg 94%
    15:00 +20°C° 0.1 mm 2 mps 652 mmHg 94%
    16:00 +20°C° 0.1 mm 2 mps 651 mmHg 93%
    17:00 +20°C° 0 mm 1 mps 652 mmHg 94%
    18:00 +20°C° 0 mm 1 mps 652 mmHg 94%
    19:00 +20°C° 0 mm 1 mps 652 mmHg 95%
    20:00 +20°C° 0 mm 1 mps 653 mmHg 94%
    21:00 +20°C° 0 mm 1 mps 653 mmHg 94%
    22:00 +20°C° 0 mm 1 mps 653 mmHg 93%
    23:00 +20°C° 0 mm 1 mps 653 mmHg 93%

    Tomorrow, 18 February, Tuesday

    Time Temperature Precipitation Wind Pressure Humidity
    00:00 +20°C° 0 mm 1 mps 653 mmHg 94%
    01:00 +20°C° 0 mm 1 mps 653 mmHg 94%
    02:00 +20°C° 0 mm 1 mps 653 mmHg 94%
    03:00 +20°C° 0 mm 1 mps 652 mmHg 95%
    04:00 +20°C° 0 mm 1 mps 652 mmHg 95%
    05:00 +20°C° 0 mm 1 mps 652 mmHg 95%
    06:00 +20°C° 0 mm 1 mps 653 mmHg 94%
    07:00 +20°C° 0 mm 1 mps 653 mmHg 93%
    08:00 +23°C° 0 mm 1 mps 654 mmHg 82%
    09:00 +25°C° 0 mm 1 mps 654 mmHg 71%
    10:00 +27°C° 0 mm 1 mps 655 mmHg 60%
    11:00 +28°C° 0 mm 1 mps 655 mmHg 57%
    12:00 +29°C° 0 mm 1 mps 655 mmHg 54%
    13:00 +31°C° 0 mm 1 mps 655 mmHg 51%
    14:00 +30°C° 0 mm 1 mps 654 mmHg 54%
    15:00 +29°C° 0 mm 1 mps 653 mmHg 56%
    16:00 +29°C° 0 mm 2 mps 652 mmHg 58%
    17:00 +27°C° 0.3 mm 1 mps 652 mmHg 67%
    18:00 +25°C° 0.3 mm 1 mps 652 mmHg 76%
    19:00 +23°C° 0.3 mm 1 mps 651 mmHg 85%
    20:00 +22°C° 0.1 mm 1 mps 652 mmHg 87%
    21:00 +22°C° 0.1 mm 1 mps 652 mmHg 89%
    22:00 +21°C° 0.1 mm 1 mps 652 mmHg 91%
    23:00 +21°C° 0 mm 1 mps 652 mmHg 91%

    Day after tomorrow, 19 February, Wednesday

    Time Temperature Precipitation Wind Pressure Humidity
    00:00 +21°C° 0 mm 1 mps 652 mmHg 92%
    01:00 +20°C° 0 mm 1 mps 652 mmHg 93%
    02:00 +20°C° 0 mm 1 mps 652 mmHg 92%
    03:00 +20°C° 0 mm 1 mps 652 mmHg 92%
    04:00 +20°C° 0 mm 1 mps 652 mmHg 91%
    05:00 +21°C° 0 mm 1 mps 652 mmHg 90%
    06:00 +21°C° 0 mm 1 mps 652 mmHg 89%
    07:00 +19°C° 0 mm 0 mps 653 mmHg 87%
    08:00 +22°C° 0.3 mm 0 mps 654 mmHg 79%
    09:00 +24°C° 0.3 mm 0 mps 654 mmHg 71%
    10:00 +26°C° 0.3 mm 0 mps 655 mmHg 63%
    11:00 +27°C° 0.3 mm 0 mps 655 mmHg 60%
    12:00 +30°C° 0.3 mm 1 mps 654 mmHg 57%
    13:00 +31°C° 0.3 mm 1 mps 654 mmHg 54%
    14:00 +30°C° 1.9 mm 2 mps 653 mmHg 62%
    15:00 +28°C° 1.9 mm 2 mps 652 mmHg 71%
    16:00 +26°C° 1.9 mm 3 mps 651 mmHg 80%
    17:00 +25°C° 1.4 mm 3 mps 651 mmHg 83%
    18:00 +24°C° 1.4 mm 3 mps 652 mmHg 86%
    19:00 +21°C° 1.4 mm 2 mps 652 mmHg 89%
    20:00 +21°C° 0.4 mm 2 mps 652 mmHg 91%
    21:00 +20°C° 0.4 mm 2 mps 653 mmHg 92%
    22:00 +21°C° 0.4 mm 1 mps 653 mmHg 94%
    23:00 +20°C° 0.1 mm 2 mps 653 mmHg 94%

    20 February, Thursday

    Time Temperature Precipitation Wind Pressure Humidity
    00:00 +20°C° 0.1 mm 2 mps 653 mmHg 95%
    01:00 +20°C° 0.1 mm 2 mps 653 mmHg 96%
    02:00 +21°C° 0.2 mm 1 mps 652 mmHg 96%
    03:00 +21°C° 0.2 mm 1 mps 652 mmHg 96%
    04:00 +21°C° 0.2 mm 1 mps 652 mmHg 96%
    05:00 +21°C° 0.4 mm 1 mps 653 mmHg 95%
    06:00 +21°C° 0.4 mm 1 mps 653 mmHg 95%
    07:00 +21°C° 0.4 mm 1 mps 653 mmHg 94%
    08:00 +23°C° 0.9 mm 1 mps 653 mmHg 87%
    09:00 +24°C° 0.9 mm 1 mps 654 mmHg 80%
    10:00 +26°C° 0.9 mm 1 mps 654 mmHg 73%
    11:00 +27°C° 0.7 mm 1 mps 654 mmHg 69%
    12:00 +28°C° 0.7 mm 1 mps 654 mmHg 64%
    13:00 +30°C° 0.7 mm 1 mps 653 mmHg 60%
    14:00 +29°C° 1.1 mm 1 mps 653 mmHg 65%
    15:00 +28°C° 1.1 mm 1 mps 652 mmHg 70%
    16:00 +27°C° 1.1 mm 1 mps 651 mmHg 76%
    17:00 +25°C° 0.7 mm 1 mps 651 mmHg 80%
    18:00 +24°C° 0.7 mm 1 mps 651 mmHg 84%
    19:00 +21°C° 0.7 mm 2 mps 651 mmHg 89%
    20:00 +22°C° 0.1 mm 1 mps 651 mmHg 90%
    21:00 +21°C° 0.1 mm 1 mps 652 mmHg 90%
    22:00 +21°C° 0.1 mm 1 mps 652 mmHg 91%
    23:00 +21°C° 0 mm 1 mps 652 mmHg 92%

    21 February, Friday

    Time Temperature Precipitation Wind Pressure Humidity
    00:00 +20°C° 0 mm 2 mps 652 mmHg 93%
    01:00 +19°C° 0 mm 2 mps 652 mmHg 94%
    02:00 +20°C° 0.2 mm 1 mps 652 mmHg 94%
    03:00 +20°C° 0.2 mm 1 mps 651 mmHg 93%
    04:00 +19°C° 0.2 mm 1 mps 651 mmHg 93%
    05:00 +20°C° 0.1 mm 1 mps 652 mmHg 91%
    06:00 +18°C° 0.1 mm 0 mps 652 mmHg 89%
    07:00 +19°C° 0.1 mm 0 mps 653 mmHg 88%
    14:00 +31°C° 0 mm 1 mps 653 mmHg 46%
    15:00 +30°C° 0 mm 1 mps 652 mmHg 47%
    16:00 +30°C° 0 mm 1 mps 652 mmHg 48%
    17:00 +28°C° 0.1 mm 1 mps 652 mmHg 58%
    18:00 +26°C° 0.1 mm 1 mps 651 mmHg 68%
    19:00 +23°C° 0.1 mm 2 mps 651 mmHg 77%
    20:00 +23°C° 0 mm 2 mps 652 mmHg 79%
    21:00 +21°C° 0 mm 2 mps 652 mmHg 81%
    22:00 +21°C° 0 mm 2 mps 652 mmHg 83%
    23:00 +20°C° 0 mm 2 mps 652 mmHg 85%

    22 February, Saturday

    Time Temperature Precipitation Wind Pressure Humidity
    00:00 +20°C° 0 mm 2 mps 652 mmHg 87%
    01:00 +19°C° 0 mm 2 mps 652 mmHg 89%
    02:00 +19°C° 0 mm 2 mps 652 mmHg 88%
    03:00 +20°C° 0 mm 1 mps 651 mmHg 88%
    04:00 +19°C° 0 mm 1 mps 651 mmHg 87%
    05:00 +20°C° 0 mm 1 mps 652 mmHg 86%
    06:00 +20°C° 0 mm 1 mps 652 mmHg 85%
    07:00 +21°C° 0 mm 1 mps 653 mmHg 84%
    08:00 +23°C° 0 mm 1 mps 653 mmHg 74%
    09:00 +25°C° 0 mm 1 mps 654 mmHg 65%
    10:00 +27°C° 0 mm 2 mps 655 mmHg 56%
    11:00 +28°C° 0 mm 2 mps 654 mmHg 52%
    12:00 +29°C° 0 mm 2 mps 654 mmHg 48%
    13:00 +31°C° 0 mm 2 mps 653 mmHg 45%
    14:00 +30°C° 0 mm 2 mps 653 mmHg 47%
    15:00 +30°C° 0 mm 2 mps 652 mmHg 48%
    16:00 +30°C° 0 mm 2 mps 652 mmHg 50%
    17:00 +28°C° 0 mm 2 mps 651 mmHg 57%
    18:00 +26°C° 0 mm 2 mps 651 mmHg 64%
    19:00 +24°C° 0 mm 2 mps 651 mmHg 71%
    20:00 +23°C° 0 mm 2 mps 652 mmHg 74%
    21:00 +21°C° 0 mm 2 mps 652 mmHg 78%
    22:00 +21°C° 0 mm 2 mps 653 mmHg 81%
    23:00 +21°C° 0.2 mm 1 mps 652 mmHg 83%
    Show more